Location: Gu�tanj
(46.5431°N, 14.9692°E)
Time: 14:55:17
(UTC+00:00)

USA 234 - Pass Details

Date: 03 March 2021
Orbit: 1102 x 1105 km, 123.0° (Epoch: 18 April)

Event Time Altitude Azimuth Distance (km) Brightness Sun altitude
Exits shadow 17:52:37 - 62° (ENE) 3,033 5.1 -11.7°
Reaches altitude 10° 17:52:49 10° 62° (ENE) 2,965 5.0 -11.8°
Maximum altitude 17:58:56 41° 132° (SE) 1,543 3.7 -12.8°
Drops below altitude 10° 18:05:02 10° 201° (SSW) 2,953 5.7 -13.8°
Sets 18:07:40 0° 208° (SSW) 3,908 6.5 -14.3°
